Regional Weather Roundup
Issued by NWS

Home | Current Version | Previous Version | Text Only | Print | Product List | Glossary On
Versions: 1 2 3 4 5 6 7 8 9 10 11 12 13 14 15 16 17 18 19 20 21 22 23 24 25 26 27 28 29 30 31 32 33 34 35 36 37 38 39 40 41 42 43 44 45 46 47 48 49 50
000
ASUS44 KBMX 260710
RWRAL

ALABAMA REGIONAL WEATHER ROUNDUP
NATIONAL WEATHER SERVICE BIRMINGHAM AL
200 AM CDT TUE MAY 26 2015

NOTE: "FAIR" INDICATES FEW OR NO CLOUDS BELOW 12,000 FEET
WITH NO SIGNIFICANT WEATHER AND/OR OBSTRUCTIONS TO VISIBILITY.

THE REMARK "TC" DENOTES TEMPERATURE IN DEGREES CELSIUS.

ALZ001>011-014-016>018-020-260800-
NORTH ALABAMA

CITY           SKY/WX    TMP DP  RH WIND       PRES   REMARKS
MUSCLE SHOALS  PTCLDY    67  63  87 SE9       30.10F
HUNTSVILLE     CLEAR     68  64  87 SE8       30.11F
DECATUR        CLEAR     66  65  96 SE9       30.12F
HALEYVILLE     FAIR      65  65 100 SE5       30.12F
GADSDEN        PTCLDY   N/A N/A N/A E5        30.14F
$$

ALZ012-013-022-023-030>036-040>044-260800-
WEST CENTRAL ALABAMA

CITY           SKY/WX    TMP DP  RH WIND       PRES   REMARKS
TUSCALOOSA     PTCLDY    69  66  90 CALM      30.10F
$$

ALZ015-024>027-033>036-040>044-260800-
CENTRAL ALABAMA

CITY           SKY/WX    TMP DP  RH WIND       PRES   REMARKS
BIRMINGHAM     PTCLDY    68  65  90 E6        30.15F
MONTGOMERY     PTCLDY    68  66  93 E3        30.13F
SHELBY CO ARPT CLEAR     67  66  97 CALM      30.14F
MAXWELL AFB    PTCLDY    68  67  96 NE5       30.11F
GREENVILLE     FAIR      68  66  93 VRB3      30.12
$$

ALZ019-021-028-029-037-038-045>048-260800-
EAST CENTRAL ALABAMA

CITY           SKY/WX    TMP DP  RH WIND       PRES   REMARKS
ANNISTON       MOCLDY    68  64  87 NE7       30.16F
ALEXANDER CITY PTCLDY    67  64  90 CALM      30.16F
AUBURN         CLOUDY    68  64  88 E7        30.16F
$$

ALZ051>064-260800-
SOUTHWEST ALABAMA

CITY           SKY/WX    TMP DP  RH WIND       PRES   REMARKS
MOBILE         CLOUDY    77  75  93 SE15      30.07F
BROOKLEY FIELD CLOUDY    78  75  90 SE13G20   30.08F
EVERGREEN      CLOUDY    71  70  96 SE7         N/A
$$

ALZ049-050-065>069-260800-
SOUTHEAST ALABAMA

CITY           SKY/WX    TMP DP  RH WIND       PRES   REMARKS
DOTHAN         PTCLDY    71  70  96 E5        30.16F
OZARK          CLEAR     69  68  98 NE2       30.12F
TROY           CLEAR     67  66  97 CALM      30.14F
EUFAULA        FAIR      73  70  90 SE5       30.14S
$$


USA.gov is the U.S. government's official web portal to all federal, state and local government web resources and services.